• en France
  • Liste des pays
  • À 7 jours
  • Température de l'eau
  • Carte satellitaire
  • Carte météo
  • Widgets météo
  • user-avatar
    Se connecter

    Météo par heure à Catanih

    Ce jour, 17 Octobre, Mercredi

    Heure Température Précipitation Vent Pression Humidité
    00:00 +6°C° 0 mm 1 m/s 620 mmHg 76%
    01:00 +5°C° 0 mm 2 m/s 620 mmHg 75%
    02:00 +5°C° 0 mm 2 m/s 620 mmHg 73%
    03:00 +5°C° 0 mm 2 m/s 620 mmHg 72%
    04:00 +5°C° 0 mm 2 m/s 619 mmHg 71%
    05:00 +5°C° 0 mm 2 m/s 619 mmHg 69%
    06:00 +4°C° 0 mm 2 m/s 619 mmHg 68%
    07:00 +8°C° 0 mm 1 m/s 620 mmHg 60%
    08:00 +10°C° 0 mm 1 m/s 621 mmHg 52%
    09:00 +12°C° 0 mm 1 m/s 622 mmHg 44%
    10:00 +13°C° 0 mm 2 m/s 622 mmHg 43%
    11:00 +14°C° 0 mm 2 m/s 622 mmHg 41%
    12:00 +14°C° 0 mm 3 m/s 622 mmHg 40%
    13:00 +14°C° 0 mm 3 m/s 622 mmHg 43%
    14:00 +13°C° 0 mm 3 m/s 622 mmHg 47%
    15:00 +13°C° 0 mm 3 m/s 621 mmHg 50%
    16:00 +12°C° 0 mm 2 m/s 621 mmHg 61%
    17:00 +9°C° 0 mm 2 m/s 620 mmHg 71%
    18:00 +8°C° 0 mm 1 m/s 619 mmHg 82%
    19:00 +8°C° 0 mm 1 m/s 619 mmHg 81%
    20:00 +8°C° 0 mm 1 m/s 619 mmHg 79%
    21:00 +8°C° 0 mm 1 m/s 619 mmHg 78%
    22:00 +7°C° 0 mm 1 m/s 618 mmHg 75%
    23:00 +7°C° 0 mm 1 m/s 618 mmHg 72%

    Demain, 18 Octobre, Jeudi

    Heure Température Précipitation Vent Pression Humidité
    00:00 +7°C° 0 mm 1 m/s 618 mmHg 70%
    01:00 +7°C° 0 mm 1 m/s 618 mmHg 67%
    02:00 +6°C° 0 mm 1 m/s 618 mmHg 64%
    03:00 +6°C° 0 mm 1 m/s 617 mmHg 61%
    04:00 +6°C° 0 mm 1 m/s 617 mmHg 58%
    05:00 +6°C° 0 mm 1 m/s 617 mmHg 54%
    06:00 +5°C° 0 mm 1 m/s 617 mmHg 51%
    07:00 +8°C° 0 mm 1 m/s 618 mmHg 45%
    08:00 +10°C° 0 mm 1 m/s 619 mmHg 39%
    09:00 +12°C° 0 mm 1 m/s 620 mmHg 34%
    10:00 +13°C° 0 mm 1 m/s 620 mmHg 34%
    11:00 +14°C° 0 mm 2 m/s 620 mmHg 33%
    12:00 +15°C° 0 mm 2 m/s 621 mmHg 33%
    13:00 +15°C° 0 mm 2 m/s 620 mmHg 37%
    14:00 +14°C° 0 mm 2 m/s 620 mmHg 40%
    15:00 +14°C° 0 mm 2 m/s 620 mmHg 44%
    16:00 +12°C° 0 mm 2 m/s 619 mmHg 55%
    17:00 +10°C° 0 mm 1 m/s 619 mmHg 66%
    18:00 +8°C° 0 mm 1 m/s 618 mmHg 77%
    19:00 +8°C° 0 mm 1 m/s 618 mmHg 74%
    20:00 +8°C° 0 mm 1 m/s 618 mmHg 71%
    21:00 +7°C° 0 mm 1 m/s 618 mmHg 69%
    22:00 +6°C° 0 mm 2 m/s 618 mmHg 65%
    23:00 +6°C° 0 mm 2 m/s 618 mmHg 61%

    Après-demain, 19 Octobre, Vendredi

    Heure Température Précipitation Vent Pression Humidité
    00:00 +6°C° 0 mm 2 m/s 618 mmHg 57%
    01:00 +5°C° 0 mm 2 m/s 617 mmHg 55%
    02:00 +5°C° 0 mm 2 m/s 617 mmHg 53%
    03:00 +5°C° 0 mm 2 m/s 617 mmHg 52%
    04:00 +5°C° 0 mm 2 m/s 617 mmHg 50%
    05:00 +5°C° 0 mm 2 m/s 617 mmHg 49%
    06:00 +5°C° 0 mm 2 m/s 617 mmHg 48%
    07:00 +7°C° 0 mm 2 m/s 618 mmHg 43%
    08:00 +9°C° 0 mm 2 m/s 619 mmHg 37%
    09:00 +13°C° 0 mm 2 m/s 620 mmHg 32%
    10:00 +14°C° 0 mm 2 m/s 620 mmHg 30%
    11:00 +15°C° 0 mm 2 m/s 620 mmHg 28%
    12:00 +16°C° 0 mm 2 m/s 620 mmHg 26%
    13:00 +16°C° 0 mm 2 m/s 620 mmHg 30%
    14:00 +16°C° 0 mm 2 m/s 620 mmHg 34%
    15:00 +15°C° 0 mm 2 m/s 619 mmHg 37%
    16:00 +13°C° 0 mm 2 m/s 619 mmHg 47%
    17:00 +10°C° 0 mm 2 m/s 618 mmHg 56%
    18:00 +8°C° 0 mm 2 m/s 617 mmHg 65%
    19:00 +8°C° 0 mm 2 m/s 617 mmHg 64%
    20:00 +8°C° 0 mm 2 m/s 617 mmHg 63%
    21:00 +7°C° 0 mm 2 m/s 617 mmHg 61%
    22:00 +7°C° 0 mm 2 m/s 617 mmHg 61%
    23:00 +7°C° 0 mm 2 m/s 616 mmHg 60%

    20 Octobre, Samedi

    Heure Température Précipitation Vent Pression Humidité
    00:00 +7°C° 0 mm 2 m/s 616 mmHg 60%
    01:00 +7°C° 0 mm 2 m/s 616 mmHg 59%
    02:00 +6°C° 0 mm 2 m/s 616 mmHg 58%
    03:00 +6°C° 0 mm 2 m/s 615 mmHg 57%
    04:00 +6°C° 0 mm 2 m/s 615 mmHg 54%
    05:00 +6°C° 0 mm 2 m/s 615 mmHg 51%
    06:00 +6°C° 0 mm 2 m/s 615 mmHg 49%
    07:00 +9°C° 0 mm 2 m/s 616 mmHg 43%
    08:00 +12°C° 0 mm 2 m/s 617 mmHg 36%
    09:00 +15°C° 0 mm 1 m/s 618 mmHg 30%
    10:00 +16°C° 0 mm 1 m/s 618 mmHg 29%
    11:00 +17°C° 0 mm 2 m/s 618 mmHg 27%
    12:00 +18°C° 0 mm 2 m/s 619 mmHg 25%
    13:00 +17°C° 0 mm 2 m/s 618 mmHg 28%
    14:00 +17°C° 0 mm 2 m/s 618 mmHg 30%
    15:00 +17°C° 0 mm 2 m/s 618 mmHg 33%
    16:00 +15°C° 0 mm 1 m/s 617 mmHg 40%
    17:00 +13°C° 0 mm 1 m/s 616 mmHg 48%
    18:00 +10°C° 0 mm 1 m/s 616 mmHg 56%
    19:00 +10°C° 0 mm 1 m/s 616 mmHg 54%
    20:00 +10°C° 0 mm 1 m/s 616 mmHg 52%
    21:00 +10°C° 0 mm 1 m/s 616 mmHg 50%
    22:00 +10°C° 0 mm 1 m/s 616 mmHg 50%
    23:00 +9°C° 0 mm 1 m/s 615 mmHg 49%

    21 Octobre, Dimanche

    Heure Température Précipitation Vent Pression Humidité
    00:00 +9°C° 0 mm 1 m/s 615 mmHg 49%
    01:00 +9°C° 0 mm 1 m/s 615 mmHg 49%
    02:00 +9°C° 0 mm 1 m/s 615 mmHg 50%
    03:00 +8°C° 0 mm 1 m/s 614 mmHg 50%
    04:00 +8°C° 0 mm 1 m/s 614 mmHg 50%
    05:00 +8°C° 0 mm 1 m/s 614 mmHg 50%
    06:00 +8°C° 0 mm 1 m/s 614 mmHg 50%
    07:00 +10°C° 0 mm 1 m/s 615 mmHg 46%
    08:00 +12°C° 0 mm 1 m/s 616 mmHg 43%
    09:00 +14°C° 0 mm 1 m/s 617 mmHg 39%
    10:00 +15°C° 0 mm 1 m/s 617 mmHg 38%
    11:00 +16°C° 0 mm 1 m/s 617 mmHg 37%
    12:00 +16°C° 0 mm 2 m/s 617 mmHg 36%
    13:00 +16°C° 0 mm 2 m/s 616 mmHg 39%
    14:00 +16°C° 0 mm 2 m/s 616 mmHg 41%
    15:00 +15°C° 0 mm 2 m/s 615 mmHg 44%
    16:00 +14°C° 0 mm 1 m/s 615 mmHg 51%
    17:00 +12°C° 0 mm 1 m/s 615 mmHg 58%
    18:00 +10°C° 0 mm 0 m/s 614 mmHg 65%
    19:00 +9°C° 0 mm 0 m/s 614 mmHg 66%
    20:00 +10°C° 0 mm 1 m/s 614 mmHg 67%
    21:00 +9°C° 0 mm 1 m/s 614 mmHg 67%
    22:00 +9°C° 0 mm 1 m/s 614 mmHg 68%
    23:00 +9°C° 0 mm 1 m/s 613 mmHg 69%

    22 Octobre, Lundi

    Heure Température Précipitation Vent Pression Humidité
    00:00 +8°C° 0 mm 1 m/s 613 mmHg 69%
    01:00 +8°C° 0 mm 1 m/s 613 mmHg 70%
    02:00 +8°C° 0 mm 1 m/s 613 mmHg 70%
    03:00 +8°C° 0 mm 1 m/s 613 mmHg 70%
    04:00 +8°C° 0 mm 1 m/s 613 mmHg 71%
    05:00 +8°C° 0 mm 1 m/s 613 mmHg 72%
    06:00 +8°C° 0 mm 1 m/s 613 mmHg 73%
    07:00 +9°C° 0 mm 1 m/s 614 mmHg 67%
    08:00 +11°C° 0 mm 1 m/s 615 mmHg 62%
    09:00 +12°C° 0 mm 1 m/s 616 mmHg 56%
    10:00 +13°C° 0 mm 1 m/s 616 mmHg 53%
    11:00 +14°C° 0 mm 2 m/s 616 mmHg 51%
    12:00 +15°C° 0 mm 2 m/s 616 mmHg 48%
    13:00 +15°C° 0 mm 2 m/s 616 mmHg 51%
    14:00 +14°C° 0 mm 2 m/s 616 mmHg 53%
    15:00 +14°C° 0 mm 2 m/s 616 mmHg 56%
    16:00 +13°C° 0.1 mm 2 m/s 616 mmHg 64%
    17:00 +11°C° 0.1 mm 1 m/s 615 mmHg 72%
    18:00 +10°C° 0.1 mm 1 m/s 615 mmHg 80%
    19:00 +9°C° 0.1 mm 1 m/s 615 mmHg 81%
    20:00 +9°C° 0.1 mm 1 m/s 615 mmHg 82%
    21:00 +9°C° 0.1 mm 1 m/s 615 mmHg 82%
    22:00 +9°C° 0 mm 1 m/s 615 mmHg 81%
    23:00 +8°C° 0 mm 1 m/s 615 mmHg 80%
    Voir plus